Location: Unspecified
(58.7730°N, 5.8460°E)
Time: 08:50:27
(UTC+02:00)

Okean 3 - Visible Passes

Search period start: 24 September 2017 00:00
Search period end: 04 October 2017 00:00
Orbit: 578 x 601 km, 82.5° (Epoch: 23 September)

Date Brightness Start Highest point End Pass type
(mag) Time Alt. Az. Time Alt. Az. Time Alt. Az.
24 Sep 5.2 04:07:57 18° SE 04:10:13 30° E 04:14:00 10° NNE visible
24 Sep 3.8 05:44:31 19° SW 05:47:20 47° WNW 05:51:33 10° N visible
25 Sep 4.7 04:16:34 26° SE 04:18:21 39° E 04:22:22 10° NNE visible
25 Sep 4.2 05:53:08 19° WSW 05:55:40 36° WNW 05:59:42 10° N visible
26 Sep 4.1 04:25:10 37° SSE 04:26:28 52° E 04:30:42 10° NNE visible
26 Sep 4.5 06:01:44 18° WSW 06:04:00 28° WNW 06:07:49 10° N visible
27 Sep 6.2 02:57:09 12° E 02:58:11 13° ENE 03:00:09 10° NE visible
27 Sep 3.6 04:33:43 52° SSE 04:34:39 71° E 04:38:59 10° NNE visible
27 Sep 4.9 06:10:17 16° W 06:12:24 23° WNW 06:15:51 10° N visible
28 Sep 5.9 03:05:41 17° E 03:06:11 17° E 03:08:59 10° NE visible
28 Sep 3.4 04:42:15 65° SSW 04:42:52 87° WNW 04:47:14 10° NNE visible
28 Sep 5.2 06:18:48 14° W 06:20:49 18° NW 06:23:51 10° N visible
29 Sep 5.5 03:14:10 22° E 03:14:13 22° E 03:17:34 10° NE visible
29 Sep 3.4 04:50:45 62° WSW 04:51:07 65° WNW 04:55:26 10° N visible
29 Sep 5.4 06:27:18 11° W 06:29:17 15° NW 06:31:44 10° NNW visible
30 Sep 5.2 03:22:39 28° E 03:22:39 28° E 03:26:01 10° NNE visible
30 Sep 3.7 04:59:13 49° WNW 04:59:23 49° WNW 05:03:37 10° N visible
30 Sep 5.6 06:36:09 10° WNW 06:37:46 12° NW 06:39:23 10° NNW visible
01 Oct 4.9 03:31:06 35° ENE 03:31:06 35° ENE 03:34:25 10° NNE visible
01 Oct 4.2 05:07:40 37° WNW 05:07:42 37° WNW 05:11:46 10° N visible
02 Oct 4.7 03:39:33 41° NE 03:39:33 41° NE 03:42:44 10° NNE visible
02 Oct 4.6 05:16:06 29° WNW 05:16:06 29° WNW 05:19:52 10° N visible
03 Oct 6.4 02:11:23 11° ENE 02:11:23 11° ENE 02:12:05 10° NE visible
03 Oct 4.6 03:47:57 44° NNE 03:47:57 44° NNE 03:51:01 10° NNE visible
03 Oct 4.9 05:24:30 23° WNW 05:24:30 23° WNW 05:27:55 10° N visible
